| time (UTC) | temp F | wind direction | speed MPH | gust MPH | rain 1hr in | rain 24hr in | rain mn in | humidity % | barometer mb |
| 20260505090152 | 56 | 15 | 1.0 | 9.0 | 0.00 | 0.00 | 0.00 | 73 | 1013.4 |
| 20260505084544 | 55 | 300 | 3.0 | 8.0 | 0.00 | 0.00 | 0.00 | 75 | 1013.5 |
| 20260505083036 | 54 | 252 | 1.0 | 5.0 | 0.00 | 0.00 | 0.00 | 76 | 1013.4 |
| 20260505081533 | 53 | 273 | 1.0 | 5.0 | 0.00 | 0.00 | 0.00 | 79 | 1013.5 |
| 20260505080029 | 52 | 348 | 1.0 | 7.0 | 0.00 | 0.00 | 0.00 | 79 | 1013.6 |
| 20260505074526 | 51 | 300 | 3.0 | 6.0 | 0.00 | 0.00 | 0.00 | 79 | 1013.6 |
| 20260505073033 | 50 | 304 | 2.0 | 6.0 | 0.00 | 0.00 | 0.00 | 81 | 1013.6 |
| 20260505071519 | 49 | 272 | 3.0 | 6.0 | 0.00 | 0.00 | 0.00 | 84 | 1013.7 |
| 20260505070024 | 47 | 235 | 2.0 | 5.0 | 0.00 | 0.00 | 0.00 | 87 | 1013.8 |
| 20260505064512 | 46 | 263 | 1.0 | 6.0 | 0.00 | 0.00 | 0.00 | 92 | 1013.8 |
| 20260505063014 | 45 | 236 | 2.0 | 6.0 | 0.00 | 0.00 | 0.00 | 94 | 1013.8 |
| 20260505061519 | 43 | 252 | 3.0 | 4.0 | 0.00 | 0.00 | 0.00 | 95 | 1013.7 |
| 20260505060011 | 42 | 239 | 2.0 | 6.0 | 0.00 | 0.00 | 0.00 | 96 | 1013.6 |
| 20260505054511 | 40 | 179 | 2.0 | 3.0 | 0.00 | 0.00 | 0.00 | 95 | 1013.5 |
| 20260505053015 | 40 | 197 | 1.0 | 3.0 | 0.00 | 0.00 | 0.00 | 95 | 1013.5 |
| 20260505051514 | 39 | 198 | 2.0 | 4.0 | 0.00 | 0.00 | 0.00 | 95 | 1013.5 |
| 20260505041504 | 38 | 200 | 0.0 | 0.0 | 0.00 | 0.00 | 0.00 | 94 | 1013.2 |
| 20260505040006 | 39 | 204 | 1.0 | 3.0 | 0.00 | 0.00 | 0.00 | 94 | 1013.2 |
| 20260505034600 | 39 | 208 | 1.0 | 2.0 | 0.00 | 0.00 | 0.00 | 93 | 1013.2 |
| 20260505033059 | 40 | 221 | 1.0 | 3.0 | 0.00 | 0.00 | 0.00 | 93 | 1013.2 |
| 20260505031605 | 40 | 221 | 1.0 | 3.0 | 0.00 | 0.00 | 0.00 | 93 | 1013.3 |
| 20260505030055 | 40 | 221 | 1.0 | 3.0 | 0.00 | 0.00 | 0.00 | 93 | 1013.2 |
| 20260505024559 | 41 | 221 | 1.0 | 3.0 | 0.00 | 0.00 | 0.00 | 93 | 1013.3 |
| 20260505023050 | 42 | 221 | 1.0 | 3.0 | 0.00 | 0.00 | 0.00 | 93 | 1013.4 |
| 20260505021551 | 43 | 220 | 3.0 | 5.0 | 0.00 | 0.00 | 0.00 | 93 | 1013.4 |
| 20260505020045 | 43 | 213 | 1.0 | 4.0 | 0.00 | 0.00 | 0.00 | 93 | 1013.4 |
| 20260505014601 | 44 | 212 | 3.0 | 5.0 | 0.00 | 0.00 | 0.00 | 93 | 1013.5 |
| 20260505013041 | 44 | 206 | 2.0 | 4.0 | 0.00 | 0.00 | 0.00 | 93 | 1013.6 |
| 20260505011545 | 44 | 212 | 1.0 | 3.0 | 0.00 | 0.00 | 0.00 | 93 | 1013.7 |
| 20260505010037 | 45 | 213 | 2.0 | 4.0 | 0.00 | 0.00 | 0.00 | 93 | 1013.7 |
| 20260505004539 | 45 | 213 | 2.0 | 4.0 | 0.00 | 0.00 | 0.00 | 92 | 1013.8 |
| 20260505003033 | 46 | 214 | 2.0 | 4.0 | 0.00 | 0.00 | 0.00 | 92 | 1013.9 |
| 20260505001531 | 46 | 214 | 1.0 | 3.0 | 0.00 | 0.00 | 0.00 | 91 | 1013.9 |
| 20260505000037 | 47 | 214 | 2.0 | 5.0 | 0.00 | 0.01 | 0.00 | 91 | 1014.0 |
| 20260504234530 | 48 | 233 | 2.0 | 3.0 | 0.00 | 0.01 | 0.00 | 90 | 1014.1 |
| 20260504233027 | 49 | 231 | 3.0 | 7.0 | 0.00 | 0.01 | 0.00 | 91 | 1014.1 |
| 20260504231526 | 49 | 237 | 3.0 | 10.0 | 0.00 | 0.01 | 0.00 | 91 | 1014.1 |
| 20260504230025 | 49 | 222 | 5.0 | 8.0 | 0.00 | 0.02 | 0.00 | 91 | 1014.1 |
| 20260504224524 | 49 | 167 | 5.0 | 10.0 | 0.00 | 0.02 | 0.00 | 91 | 1014.1 |
| 20260504223034 | 49 | 174 | 5.0 | 9.0 | 0.00 | 0.02 | 0.00 | 91 | 1014.3 |
| 20260504221526 | 49 | 167 | 4.0 | 8.0 | 0.00 | 0.02 | 0.00 | 91 | 1014.5 |
| 20260504220023 | 49 | 204 | 1.0 | 8.0 | 0.00 | 0.04 | 0.00 | 90 | 1014.5 |
| 20260504214525 | 50 | 190 | 1.0 | 9.0 | 0.00 | 0.04 | 0.00 | 90 | 1014.5 |
| 20260504213033 | 50 | 169 | 4.0 | 11.0 | 0.00 | 0.04 | 0.00 | 90 | 1014.6 |
| 20260504211528 | 50 | 160 | 6.0 | 10.0 | 0.00 | 0.04 | 0.00 | 89 | 1014.6 |
| 20260504210021 | 51 | 191 | 7.0 | 11.0 | 0.00 | 0.05 | 0.00 | 89 | 1014.6 |
| 20260504204534 | 50 | 165 | 6.0 | 12.0 | 0.00 | 0.05 | 0.00 | 89 | 1014.6 |
| 20260504203024 | 50 | 191 | 7.0 | 15.0 | 0.00 | 0.05 | 0.00 | 89 | 1014.6 |
| 20260504201520 | 50 | 160 | 8.0 | 12.0 | 0.00 | 0.05 | 0.00 | 88 | 1014.5 |
| 20260504200019 | 50 | 167 | 7.0 | 14.0 | 0.00 | 0.05 | 0.00 | 88 | 1014.5 |
| 20260504194518 | 51 | 135 | 3.0 | 11.0 | 0.00 | 0.05 | 0.00 | 87 | 1014.4 |
| 20260504193019 | 51 | 140 | 5.0 | 10.0 | 0.00 | 0.05 | 0.00 | 86 | 1014.3 |
| 20260504191518 | 51 | 136 | 5.0 | 12.0 | 0.00 | 0.05 | 0.00 | 86 | 1014.3 |
| 20260504190017 | 51 | 163 | 4.0 | 11.0 | 0.00 | 0.05 | 0.00 | 85 | 1014.2 |
| 20260504184517 | 52 | 175 | 5.0 | 12.0 | 0.00 | 0.05 | 0.00 | 84 | 1014.2 |
| 20260504183016 | 52 | 183 | 6.0 | 13.0 | 0.00 | 0.05 | 0.00 | 83 | 1014.1 |
| 20260504181517 | 52 | 151 | 5.0 | 14.0 | 0.00 | 0.05 | 0.00 | 83 | 1014.2 |
| 20260504180018 | 53 | 170 | 7.0 | 14.0 | 0.00 | 0.05 | 0.00 | 82 | 1014.3 |
| 20260504174517 | 53 | 156 | 8.0 | 12.0 | 0.00 | 0.05 | 0.00 | 81 | 1014.3 |
| 20260504173014 | 54 | 182 | 7.0 | 14.0 | 0.00 | 0.05 | 0.00 | 81 | 1014.4 |
| 20260504171513 | 54 | 159 | 6.0 | 13.0 | 0.00 | 0.05 | 0.00 | 80 | 1014.4 |
| 20260504140158 | 58 | 175 | 2.0 | 11.0 | 0.00 | 0.07 | 0.00 | 76 | 1015.3 |